GW7250 Weather Reports


time (UTC)temp
C
wind
direction
speed
KPH
gust
KPH
rain 1hr
cm
rain 24hr
cm
rain mn
cm
humidity
%
barometer
mb
20260906113526 21 64 0.0 3.2 0.00 0.00 0.00 97 1013.4
20260906113022 21 115 1.6 1.6 0.00 0.00 0.00 97 1013.6
20260906112516 21 236 0.0 3.2 0.00 0.00 0.00 97 1013.5
20260906112013 21 83 1.6 1.6 0.00 0.00 0.00 98 1013.3
20260906111512 21 7 0.0 1.6 0.00 0.00 0.00 98 1013.5
20260906111008 21 136 0.0 0.0 0.00 0.00 0.00 98 1013.3
20260906110502 21 98 1.6 3.2 0.00 0.00 0.00 98 1013.0
20260906110001 21 0 0.0 3.2 0.00 0.00 0.00 98 1013.2
20260906105457 21 341 3.2 3.2 0.00 0.00 0.00 98 1013.3
20260906104953 21 343 1.6 3.2 0.00 0.00 0.00 98 1013.1
20260906104451 21 353 3.2 1.6 0.00 0.00 0.00 98 1012.9
20260906103951 21 22 1.6 1.6 0.00 0.00 0.00 98 1012.8
20260906103449 20 69 0.0 0.0 0.00 0.00 0.00 98 1012.7
20260906102944 20 69 0.0 0.0 0.00 0.00 0.00 98 1012.9
20260906102445 20 69 0.0 0.0 0.00 0.00 0.00 98 1012.9
20260906101945 20 72 0.0 0.0 0.00 0.00 0.00 97 1012.9
20260906101441 20 72 0.0 0.0 0.00 0.00 0.00 97 1012.7
20260906100941 20 72 0.0 0.0 0.00 0.00 0.00 97 1012.8
20260906100436 20 72 0.0 0.0 0.00 0.00 0.00 97 1012.7
20260906095936 20 72 0.0 0.0 0.00 0.00 0.00 97 1012.8
20260906095431 20 72 0.0 1.6 0.00 0.00 0.00 97 1012.7
20260906094926 20 73 0.0 0.0 0.00 0.00 0.00 97 1012.5
20260906094420 20 73 0.0 0.0 0.00 0.00 0.00 97 1012.5
20260906093916 20 72 0.0 0.0 0.00 0.00 0.00 97 1012.4
20260906093413 20 85 0.0 0.0 0.00 0.00 0.00 97 1012.5
20260906092912 20 85 0.0 0.0 0.00 0.00 0.00 97 1012.6
20260906092412 20 85 0.0 0.0 0.00 0.00 0.00 97 1012.6
20260906091908 20 85 0.0 0.0 0.00 0.00 0.00 97 1012.5
20260906091404 20 85 0.0 0.0 0.00 0.00 0.00 96 1012.6
20260906090900 20 85 0.0 0.0 0.00 0.00 0.00 96 1012.5
20260906090359 20 85 0.0 0.0 0.00 0.00 0.00 96 1012.6
20260906085854 20 85 0.0 1.6 0.00 0.00 0.00 96 1012.4
20260906085354 20 85 0.0 0.0 0.00 0.00 0.00 96 1012.4
20260906084848 20 86 0.0 0.0 0.00 0.00 0.00 96 1012.2
20260906084348 20 86 0.0 0.0 0.00 0.00 0.00 96 1012.4
20260906083842 20 86 0.0 0.0 0.00 0.00 0.00 96 1012.4
20260906083338 20 86 0.0 0.0 0.00 0.00 0.00 96 1012.2
20260906082838 20 86 0.0 0.0 0.00 0.00 0.00 96 1012.3
20260906082333 20 86 0.0 0.0 0.00 0.00 0.00 96 1012.5
20260906081829 20 85 0.0 0.0 0.00 0.00 0.00 96 1012.2
20260906081324 20 85 1.6 1.6 0.00 0.00 0.00 96 1012.4
20260906080820 20 86 0.0 0.0 0.00 0.00 0.00 95 1012.3
20260906080316 20 86 0.0 0.0 0.00 0.00 0.00 95 1012.4
20260906075816 21 86 1.6 1.6 0.00 0.00 0.00 94 1012.6
20260906075316 21 91 0.0 0.0 0.00 0.00 0.00 94 1012.5
20260906074811 21 91 0.0 0.0 0.00 0.00 0.00 93 1012.3
20260906074311 21 91 0.0 1.6 0.00 0.00 0.00 91 1012.3
20260906073810 21 91 1.6 1.6 0.00 0.00 0.00 92 1012.4
20260906073305 21 91 1.6 1.6 0.00 0.00 0.00 91 1012.2
20260906072801 22 92 0.0 0.0 0.00 0.00 0.00 89 1012.5
20260906072256 22 92 0.0 0.0 0.00 0.00 0.00 88 1012.3
20260906071752 22 92 0.0 0.0 0.00 0.00 0.00 87 1012.3
20260906071252 22 92 1.6 1.6 0.00 0.00 0.00 87 1012.3
20260906070749 22 92 1.6 3.2 0.00 0.00 0.00 89 1012.3
20260906070244 21 69 1.6 3.2 0.00 0.00 0.00 92 1012.5
20260906065744 21 112 1.6 1.6 0.00 0.00 0.00 94 1012.5
20260906065239 21 124 1.6 1.6 0.00 0.00 0.00 95 1012.6
20260906064735 21 126 1.6 1.6 0.00 0.00 0.00 94 1012.7
20260906064230 21 126 0.0 1.6 0.00 0.00 0.00 94 1012.8
20260906063725 21 126 0.0 0.0 0.00 0.00 0.00 93 1012.6
20260906063221 21 126 0.0 0.0 0.00 0.00 0.00 92 1012.6
20260906062716 22 126 0.0 0.0 0.00 0.00 0.00 90 1012.8
20260906062215 22 126 0.0 0.0 0.00 0.00 0.00 89 1012.9
20260906061711 22 126 0.0 0.0 0.00 0.00 0.00 90 1012.9
20260906061207 22 126 0.0 0.0 0.00 0.00 0.00 90 1012.9
20260906060703 22 126 0.0 1.6 0.00 0.00 0.00 90 1013.0
20260906060200 21 126 0.0 1.6 0.00 0.00 0.00 93 1012.7
20260906055655 21 126 0.0 0.0 0.00 0.00 0.00 95 1012.8
20260906055150 21 126 0.0 0.0 0.00 0.00 0.00 94 1013.0
20260906054646 21 126 0.0 0.0 0.00 0.00 0.00 94 1012.8
20260906054140 22 126 0.0 0.0 0.00 0.00 0.00 93 1013.0
20260906053637 22 126 0.0 0.0 0.00 0.00 0.00 92 1012.9
20260906053137 22 126 0.0 0.0 0.00 0.00 0.00 91 1013.0
20260906052633 22 126 0.0 1.6 0.00 0.00 0.00 91 1012.9
20260906052130 22 126 0.0 1.6 0.00 0.00 0.00 92 1013.0
20260906051626 22 126 0.0 1.6 0.00 0.00 0.00 93 1012.9
20260906051125 22 132 1.6 3.2 0.00 0.00 0.00 92 1013.2
20260906050621 22 131 0.0 0.0 0.00 0.00 0.00 92 1013.2
20260906050116 22 131 0.0 1.6 0.00 0.00 0.00 93 1013.1
20260906045614 22 131 3.2 3.2 0.00 0.00 0.00 92 1013.5
20260906045110 22 130 0.0 0.0 0.00 0.00 0.00 92 1013.2
20260906044606 22 130 1.6 1.6 0.00 0.00 0.00 92 1013.3
20260906044101 22 130 0.0 0.0 0.00 0.00 0.00 91 1013.1
20260906043557 23 130 1.6 1.6 0.00 0.00 0.00 90 1013.1
20260906043052 23 129 0.0 0.0 0.00 0.00 0.00 88 1012.9
20260906042551 23 129 0.0 0.0 0.00 0.00 0.00 87 1012.9
20260906042046 23 129 0.0 1.6 0.00 0.00 0.00 88 1012.9
20260906041542 23 129 0.0 0.0 0.00 0.00 0.00 86 1013.0
20260906041037 23 129 0.0 0.0 0.00 0.00 0.00 85 1013.0
20260906040532 24 129 0.0 0.0 0.00 0.00 0.00 84 1013.1
20260906040028 24 124 0.0 0.0 0.00 0.00 0.00 83 1013.0
20260906035523 24 124 0.0 1.6 0.00 0.00 0.00 82 1012.5
20260906035019 24 121 1.6 1.6 0.00 0.00 0.00 82 1012.7
20260906034518 24 123 0.0 3.2 0.00 0.00 0.00 82 1012.6
20260906034013 25 108 0.0 3.2 0.00 0.00 0.00 83 1012.6
20260906033508 25 84 1.6 3.2 0.00 0.00 0.00 83 1012.5
20260906033004 25 90 0.0 0.0 0.00 0.00 0.00 84 1012.1
20260906032501 25 89 1.6 1.6 0.00 0.00 0.00 84 1012.3
20260906032000 25 193 1.6 1.6 0.00 0.00 0.00 84 1012.1
20260906031456 25 72 3.2 4.8 0.00 0.00 0.00 85 1012.5
20260906030951 24 110 3.2 3.2 0.00 0.00 0.00 87 1012.3
20260906030446 24 42 3.2 6.4 0.00 0.00 0.00 94 1012.5
20260906025940 23 48 3.2 3.2 0.00 0.00 0.00 94 1012.3
20260906025440 23 235 0.0 1.6 0.00 0.00 0.00 94 1012.0
20260906024938 23 104 0.0 0.0 0.00 0.00 0.00 94 1012.2
20260906024438 23 103 0.0 0.0 0.00 0.00 0.00 94 1012.3
20260906023939 24 103 0.0 0.0 0.00 0.00 0.00 93 1012.1
20260906023436 24 103 0.0 0.0 0.00 0.00 0.00 92 1012.4
20260906022936 25 103 0.0 0.0 0.00 0.00 0.00 90 1012.5
20260906022431 25 103 0.0 1.6 0.00 0.00 0.00 88 1012.4
20260906021926 25 111 3.2 3.2 0.00 0.00 0.00 92 1012.2
20260906021427 25 102 1.6 1.6 0.00 0.00 0.00 91 1012.2
20260906020926 25 100 0.0 1.6 0.00 0.00 0.00 90 1011.9
20260906020421 25 84 1.6 1.6 0.00 0.00 0.00 93 1012.0
20260906015915 25 50 1.6 1.6 0.00 0.00 0.00 94 1012.0
20260906015415 25 9 1.6 1.6 0.00 0.00 0.00 93 1011.9
20260906014915 25 9 0.0 0.0 0.00 0.00 0.00 92 1011.9
20260906014414 25 9 1.6 1.6 0.00 0.00 0.00 92 1012.0
20260906013911 25 8 0.0 0.0 0.00 0.00 0.00 91 1012.4
20260906013406 25 3 1.6 1.6 0.00 0.00 0.00 94 1012.1
20260906012902 25 304 1.6 1.6 0.00 0.00 0.00 94 1011.9
20260906012356 25 303 0.0 0.0 0.00 0.00 0.00 93 1011.9
20260906011856 25 303 0.0 3.2 0.00 0.00 0.00 92 1011.8
20260906011356 26 358 0.0 0.0 0.00 0.00 0.00 92 1011.6
20260906010852 26 358 0.0 0.0 0.00 0.00 0.00 92 1011.6
20260906010348 26 358 0.0 0.0 0.00 0.00 0.00 92 1011.5
20260906005843 26 358 0.0 0.0 0.00 0.00 0.00 92 1011.3
20260906005342 26 358 0.0 0.0 0.00 0.00 0.00 92 1011.3
20260906004841 26 358 0.0 0.0 0.00 0.00 0.00 91 1011.5
20260906004341 26 358 0.0 0.0 0.00 0.00 0.00 91 1011.4
20260906003837 26 358 0.0 0.0 0.00 0.00 0.00 91 1011.2
20260906003332 26 358 0.0 0.0 0.00 0.00 0.00 90 1011.4
20260906002827 26 358 0.0 0.0 0.00 0.00 0.00 88 1011.2
20260906002326 27 358 0.0 0.0 0.00 0.00 0.00 88 1011.4
20260906001823 27 358 0.0 0.0 0.00 0.00 0.00 88 1011.6
20260906001318 27 358 0.0 0.0 0.00 0.00 0.00 88 1011.9
20260906000813 27 358 0.0 0.0 0.00 0.00 0.00 86 1011.8
20260906000307 27 358 0.0 0.0 0.00 0.00 0.00 84 1011.9
20260905235802 28 358 0.0 0.0 0.00 0.00 0.00 81 1012.0
20260905235306 28 358 0.0 0.0 0.00 0.00 0.00 81 1012.1
20260905234758 28 358 0.0 0.0 0.00 0.00 0.00 81 1012.1
20260905234252 28 358 0.0 0.0 0.00 0.00 0.00 80 1011.9
20260905233748 28 358 0.0 0.0 0.00 0.00 0.00 80 1011.8
20260905233247 29 358 0.0 0.0 0.00 0.00 0.00 77 1011.8
20260905232747 29 358 0.0 0.0 0.00 0.00 0.00 77 1012.1
20260905232243 29 358 0.0 0.0 0.00 0.00 0.00 75 1012.0
20260905231739 29 358 0.0 0.0 0.00 0.00 0.00 75 1012.1
20260905231234 30 358 1.6 1.6 0.00 0.00 0.00 75 1012.3
20260905230730 30 358 0.0 0.0 0.00 0.00 0.00 68 1011.9
20260905230228 30 358 0.0 0.0 0.00 0.00 0.00 69 1011.9
20260905225727 30 358 0.0 0.0 0.00 0.00 0.00 65 1011.8
20260905225223 31 358 0.0 0.0 0.00 0.00 0.00 63 1011.7
20260905224722 31 358 0.0 0.0 0.00 0.00 0.00 60 1011.9
20260905224217 31 359 1.6 1.6 0.00 0.00 0.00 59 1011.9
20260905223713 31 358 0.0 1.6 0.00 0.00 0.00 59 1011.9
20260905223210 32 358 0.0 1.6 0.00 0.00 0.00 59 1011.8
20260905222706 32 358 0.0 0.0 0.00 0.00 0.00 58 1011.9
20260905222205 32 358 0.0 0.0 0.00 0.00 0.00 60 1012.0
20260905221700 32 358 0.0 0.0 0.00 0.00 0.00 59 1012.0
20260905221157 32 354 0.0 1.6 0.00 0.00 0.00 57 1011.9
20260905220653 33 353 1.6 3.2 0.00 0.00 0.00 53 1011.9
20260905220149 33 12 1.6 4.8 0.00 0.00 0.00 54 1011.7
20260905215648 33 10 4.8 4.8 0.00 0.00 0.00 52 1012.0
20260905215144 33 336 4.8 6.4 0.00 0.00 0.00 52 1011.9
20260905214640 33 292 4.8 6.4 0.00 0.00 0.00 51 1011.9
20260905214135 33 348 6.4 4.8 0.00 0.00 0.00 50 1011.5
20260905213630 33 330 6.4 9.7 0.00 0.00 0.00 49 1012.1
20260905213125 34 326 4.8 4.8 0.00 0.00 0.00 50 1011.7
20260905212620 34 321 3.2 6.4 0.00 0.00 0.00 49 1011.6
20260905212120 34 271 3.2 9.7 0.00 0.00 0.00 49 1011.8
20260905211615 34 333 3.2 3.2 0.00 0.00 0.00 50 1011.7
20260905211110 33 342 3.2 9.7 0.00 0.00 0.00 50 1012.1
20260905210608 35 338 4.8 6.4 0.00 0.00 0.00 47 1012.0
20260905210107 35 334 4.8 6.4 0.00 0.00 0.00 48 1011.8
20260905205606 35 295 4.8 4.8 0.00 0.00 0.00 49 1011.8
20260905205106 35 354 3.2 3.2 0.00 0.00 0.00 49 1011.8
20260905204600 34 296 1.6 4.8 0.00 0.00 0.00 49 1012.0
20260905204056 34 21 1.6 9.7 0.00 0.00 0.00 48 1011.9
20260905203555 34 334 6.4 6.4 0.00 0.00 0.00 47 1012.0
20260905203051 35 327 6.4 9.7 0.00 0.00 0.00 47 1012.1
20260905202546 34 325 3.2 4.8 0.00 0.00 0.00 48 1012.3
20260905202042 34 322 4.8 6.4 0.00 0.00 0.00 48 1012.3
20260905201537 34 324 3.2 9.7 0.00 0.00 0.00 46 1012.2
20260905201037 34 324 1.6 3.2 0.00 0.00 0.00 48 1012.7
20260905200532 34 319 4.8 9.7 0.00 0.00 0.00 46 1012.5
20260905200032 34 308 4.8 6.4 0.00 0.00 0.00 47 1012.5
20260905195526 35 327 3.2 6.4 0.00 0.00 0.00 47 1012.4
20260905195022 35 280 6.4 9.7 0.00 0.00 0.00 46 1012.6
20260905194521 34 105 1.6 3.2 0.00 0.00 0.00 46 1012.8
20260905194021 34 305 3.2 4.8 0.00 0.00 0.00 45 1012.8
20260905193521 34 307 6.4 9.7 0.00 0.00 0.00 47 1012.8
20260905193016 35 156 4.8 6.4 0.00 0.00 0.00 45 1012.7
20260905192512 34 260 3.2 3.2 0.00 0.00 0.00 48 1012.9
20260905192008 34 266 4.8 9.7 0.00 0.00 0.00 45 1013.0
20260905191507 34 157 0.0 4.8 0.00 0.00 0.00 46 1013.1
20260905191006 34 265 6.4 9.7 0.00 0.00 0.00 45 1012.9
20260905190504 34 266 3.2 4.8 0.00 0.00 0.00 45 1013.0
20260905190003 33 280 3.2 3.2 0.00 0.00 0.00 47 1013.0
20260905185458 34 223 3.2 12.9 0.00 0.00 0.00 46 1013.2
20260905184957 33 3 3.2 4.8 0.00 0.00 0.00 49 1013.3
20260905184452 33 301 4.8 4.8 0.00 0.00 0.00 47 1013.5
20260905183951 33 270 3.2 4.8 0.00 0.00 0.00 44 1013.2
20260905183450 33 228 4.8 9.7 0.00 0.00 0.00 47 1013.2
20260905182945 33 303 3.2 11.3 0.00 0.00 0.00 48 1013.5
20260905182445 33 289 3.2 4.8 0.00 0.00 0.00 46 1013.6
20260905181940 32 247 1.6 3.2 0.00 0.00 0.00 50 1013.5
20260905181435 32 175 4.8 9.7 0.00 0.00 0.00 47 1013.7
20260905180934 33 151 3.2 4.8 0.00 0.00 0.00 46 1013.7
20260905180429 32 197 1.6 3.2 0.00 0.00 0.00 47 1013.7
20260905175924 32 184 4.8 6.4 0.00 0.00 0.00 49 1013.8
20260905175423 32 278 3.2 4.8 0.00 0.00 0.00 51 1013.8
20260905174919 31 220 3.2 4.8 0.00 0.00 0.00 52 1014.0
20260905174414 31 251 1.6 4.8 0.00 0.00 0.00 56 1014.0
20260905173910 31 151 9.7 11.3 0.00 0.00 0.00 50 1014.1
20260905173407 31 158 9.7 11.3 0.00 0.00 0.00 53 1014.1
20260905172906 31 257 1.6 4.8 0.00 0.00 0.00 54 1013.9
20260905172404 31 178 3.2 6.4 0.00 0.00 0.00 53 1014.1
20260905171900 31 166 6.4 12.9 0.00 0.00 0.00 54 1014.1
20260905171357 31 146 1.6 3.2 0.00 0.00 0.00 53 1014.1
20260905170853 31 174 0.0 4.8 0.00 0.00 0.00 53 1014.2
20260905170349 31 167 4.8 9.7 0.00 0.00 0.00 52 1014.3
20260905165848 31 132 1.6 4.8 0.00 0.00 0.00 52 1014.5
20260905165344 31 171 3.2 6.4 0.00 0.00 0.00 52 1014.6
20260905164844 31 146 4.8 6.4 0.00 0.00 0.00 52 1014.4
20260905164339 30 169 8.0 9.7 0.00 0.00 0.00 55 1014.6
20260905163835 30 157 3.2 6.4 0.00 0.00 0.00 56 1014.4
20260905163331 30 149 4.8 6.4 0.00 0.00 0.00 57 1014.5
20260905162827 30 165 9.7 11.3 0.00 0.00 0.00 54 1014.6
20260905162327 30 168 3.2 6.4 0.00 0.00 0.00 60 1014.5
20260905161826 30 216 4.8 4.8 0.00 0.00 0.00 61 1014.3
20260905161326 30 157 6.4 11.3 0.00 0.00 0.00 57 1014.6
20260905160824 30 111 6.4 12.9 0.00 0.00 0.00 56 1014.5
20260905160319 30 166 12.9 14.5 0.00 0.00 0.00 56 1014.6
20260905155813 29 187 6.4 9.7 0.00 0.00 0.00 59 1014.7
20260905155312 29 140 9.7 11.3 0.00 0.00 0.00 57 1014.4
20260905154807 29 166 8.0 12.9 0.00 0.00 0.00 58 1014.7
20260905154302 29 146 6.4 12.9 0.00 0.00 0.00 58 1014.8
20260905153758 29 161 6.4 12.9 0.00 0.00 0.00 58 1014.9
20260905153254 29 177 1.6 11.3 0.00 0.00 0.00 60 1015.0
20260905152749 28 191 3.2 9.7 0.00 0.00 0.00 61 1015.1
20260905152248 28 182 6.4 6.4 0.00 0.00 0.00 61 1015.0
20260905151748 28 163 8.0 9.7 0.00 0.00 0.00 60 1015.6
20260905151244 28 166 8.0 11.3 0.00 0.00 0.00 62 1015.4
20260905150743 28 156 4.8 4.8 0.00 0.00 0.00 61 1015.3
20260905150243 28 147 3.2 11.3 0.00 0.00 0.00 60 1015.4
20260905145741 28 173 3.2 9.7 0.00 0.00 0.00 62 1015.3
20260905145236 28 87 3.2 9.7 0.00 0.00 0.00 61 1015.4
20260905144734 28 166 3.2 11.3 0.00 0.00 0.00 62 1015.1
20260905144230 27 122 4.8 6.4 0.00 0.00 0.00 65 1015.5
20260905143729 27 117 4.8 9.7 0.00 0.00 0.00 67 1015.3
20260905143229 26 175 3.2 3.2 0.00 0.00 0.00 70 1015.4
20260905142727 26 174 6.4 9.7 0.00 0.00 0.00 73 1015.5
20260905142222 25 174 3.2 4.8 0.00 0.00 0.00 77 1015.6
20260905141718 24 152 1.6 3.2 0.00 0.00 0.00 78 1015.7
20260905141214 25 114 4.8 9.7 0.00 0.00 0.00 78 1015.8
20260905140708 25 87 4.8 6.4 0.00 0.00 0.00 78 1015.6
20260905140203 25 182 8.0 9.7 0.00 0.00 0.00 79 1015.8
20260905135657 24 151 8.0 14.5 0.00 0.00 0.00 81 1015.7
20260905135154 23 119 3.2 6.4 0.00 0.00 0.00 82 1015.9
20260905134652 23 134 1.6 6.4 0.00 0.00 0.00 84 1015.7
20260905134152 23 141 6.4 11.3 0.00 0.00 0.00 84 1015.7
20260905133647 22 104 1.6 14.5 0.00 0.00 0.00 86 1015.7
20260905133147 22 102 3.2 6.4 0.00 0.00 0.00 86 1015.8
20260905132647 22 142 6.4 9.7 0.00 0.00 0.00 87 1015.8
20260905132142 22 135 3.2 4.8 0.00 0.00 0.00 87 1016.1
20260905131638 22 106 3.2 11.3 0.00 0.00 0.00 86 1016.0
20260905131137 22 71 4.8 6.4 0.00 0.00 0.00 85 1016.0
20260905130632 22 72 4.8 6.4 0.00 0.00 0.00 84 1015.9
20260905130127 22 38 4.8 6.4 0.00 0.00 0.00 83 1016.4
20260905125626 22 76 3.2 4.8 0.00 0.00 0.00 82 1016.3
20260905125122 22 146 9.7 14.5 0.00 0.00 0.00 81 1016.4
20260905124618 22 76 1.6 6.4 0.00 0.00 0.00 82 1016.2
20260905124114 22 53 3.2 6.4 0.00 0.00 0.00 82 1016.0
20260905123609 22 45 4.8 6.4 0.00 0.00 0.00 83 1016.1
20260905123107 23 29 4.8 6.4 0.00 0.00 0.00 82 1016.1
20260905122607 23 265 1.6 1.6 0.00 0.00 0.00 81 1015.1
20260905122106 23 0 0.0 4.8 0.00 0.00 0.00 81 1015.4
20260905121601 23 79 1.6 4.8 0.00 0.00 0.00 80 1015.5
20260905121056 23 96 4.8 4.8 0.00 0.00 0.00 80 1015.3
20260905120555 23 119 1.6 9.7 0.00 0.00 0.00 79 1015.1
20260905120051 23 46 3.2 6.4 0.00 0.00 0.00 79 1015.3
20260905115549 23 44 4.8 6.4 0.00 0.00 0.00 79 1015.5
20260905115044 23 131 4.8 9.7 0.00 0.00 0.00 80 1015.4
20260905114544 23 347 6.4 9.7 0.00 0.00 0.00 81 1015.3
20260905114043 22 108 1.6 6.4 0.00 0.00 0.00 82 1015.0